This is the latest recevied weather packets stored in our database for station/object XE2KK-10. If no packets are shown the sender has not sent any weather packets the latest 10 day(s).
| Time | Temp. | Humidity | Pressure | Rain* | Wind** | Luminosity | Snow |
|---|---|---|---|---|---|---|---|
| 1777394953 | 29.44° C | 68% | 1013.5 hPa | 0 mm | - | 693 W/m² | - |
| 1777394353 | 30° C | 68% | 1013.4 hPa | 0 mm | - | 566 W/m² | - |
| 1777394102 | 29.44° C | 68% | 1013.5 hPa | 0 mm | - | 600 W/m² | - |
| 1777394053 | 29.44° C | 68% | 1013.5 hPa | 0 mm | - | 600 W/m² | - |
| 1777393753 | 29.44° C | 68% | 1013.6 hPa | 0 mm | - | 714 W/m² | - |
| 1777393453 | 29.44° C | 68% | 1013.6 hPa | 0 mm | - | 669 W/m² | - |
| 1777392860 | 28.89° C | 71% | 1013.5 hPa | 0 mm | - | 603 W/m² | - |
| 1777392253 | 28.89° C | 70% | 1013.7 hPa | 0 mm | - | 640 W/m² | - |
| 1777392086 | 28.33° C | 71% | 1013.4 hPa | 0 mm | - | 585 W/m² | - |
| 1777391953 | 28.33° C | 71% | 1013.6 hPa | 0 mm | - | 568 W/m² | - |
| 1777390753 | 27.78° C | 74% | 1013.7 hPa | 0 mm | - | 460 W/m² | - |
| 1777390453 | 27.78° C | 75% | 1013.7 hPa | 0 mm | - | 356 W/m² | - |
| 1777389252 | 27.78° C | 74% | 1013.6 hPa | 0 mm | - | 402 W/m² | - |
| 1777388353 | 27.78° C | 74% | 1013.5 hPa | 0 mm | - | 439 W/m² | - |
| 1777388053 | 27.22° C | 76% | 1013.5 hPa | 0 mm | - | 467 W/m² | - |
| 1777387153 | 27.22° C | 76% | 1013.4 hPa | 0 mm | - | 352 W/m² | - |
| 1777386853 | 26.67° C | 77% | 1013.4 hPa | 0 mm | - | 346 W/m² | - |
| 1777386553 | 26.67° C | 78% | 1013.5 hPa | 0 mm | - | 330 W/m² | - |
| 1777386253 | 26.67° C | 78% | 1013.3 hPa | 0 mm | - | 290 W/m² | - |
| 1777385952 | 26.11° C | 79% | 1013.3 hPa | 0 mm | - | 226 W/m² | - |
| 1777385652 | 26.11° C | 79% | 1013.5 hPa | 0 mm | - | 269 W/m² | - |
| 1777385353 | 26.11° C | 80% | 1013.1 hPa | 0 mm | - | 251 W/m² | - |
| 1777385053 | 25.56° C | 81% | 1013.3 hPa | 0 mm | - | 227 W/m² | - |
| 1777384753 | 26.11° C | 80% | 1013.3 hPa | 0 mm | - | 195 W/m² | - |
| 1777384152 | 25.56° C | 81% | 1013 hPa | 0 mm | - | 145 W/m² | - |
* Rain latest hour (hover to see other rain measurements)
** Current wind speed in m/s (hover to see current wind gust speed)